SCP
0 0 0 0 0 0 0 0 0 0 0 0 0 0 0 0 0 0 0 0 0 0 0 0 0 0 0 0 0 0 0 0 0 0 0 0 0 0 -0 -0 -0 -0 0
0 0 0 0 0 0 0 0 0 0 0 0 0 0 0 0 0 0 0 0 0 0 0 0 0 0 0 0 0 0 0 0 0 0 0 0 0 0 0 0 0 0 0
0 0 0 0 0 0 0 0 0 0 0 0 0 0 0 0 0 0 0 0 0 0 0 0 0 0 0 0 0 0 0 0 0 0 0 0 0 0 0 0 0 0 0
0 0 0 0 0 0 0 0 0 0 0 0 0 0 0 0 0 0 0 0 0 0 0 0 0 0 0 0 0 0 0 0 0 0 0 0 0 0 0 0 0 0 0
0 0 0 0 0 0 0 0 0 0 0 0 0 0 0 0 0 0 0 0 0 0 0 0 0 0 0 0 0 0 0 0 0 0 0 0 0 0 0 0 0 0 0
0 0 0 0 0 0 0 0 0 0 0 0 0 0 0 0 0 0 0 0 0 0 0 0 0 0 0 0 0 0 0 0 0 0 0 0 0 0 0 0 0 0 0
0 0 0 0 0 0 0 0 0 0 0 0 0 0 0 0 0 0 0 0 0 0 0 0 0 0 0 0 0 0 0 0 0 0 0 0 0 0 0 0 0 0 0
0 0 0 0 0 0 0 0 0 0 0 0 0 0 0 0 0 0 0 0 0 0 0 0 0 0 0 0 0 0 0 0 0 0 0 0 0 0 0 0 0 0 0
0 0 0 0 0 0 0 0 0 0 0 0 0 0 0 0 0 0 0 0 0 0 0 0 0 0 0 0 0 0 0 0 0 0 0 0 0 0 0 0 0 0 0
0 0 0 0 0 0 0 0 0 0 0 0 0 0 0 0 0 0 0 0 0 0 0 0 0 0 0 0 0 0 0 0 0 0 0 0 0 0 0 0 0 0 0
0 0 0 0 0 0 0 0 0 0 0 0 0 0 0 0 0 0 0 0 0 0 0 0 0 0 0 0 0 0 0 0 0 0 0 0 0 0 0 0 0 0 0
0 0 0 0 0 0 0 0 0 0 0 0 0 0 0 0 0 0 0 0 0 0 0 0 0 0 0 0 0 0 0 0 0 0 0 0 0 0 0 0 0 0 0
0 0 0 0 0 0 0 0 0 0 0 0 0 0 0 0 0 0 0 0 0 0 0 0 0 0 0 0 0 0 0 0 0 0 0 0 0 0 0 0 0 0 0
0 0 0 0 0 0 0 0 0 0 0 0 0 0 0 0 0 0 0 0 0 0 0 0 0 0 0 0 0 0 0 0 0 0 0 0 0 0 0 0 0 0 0
0 0 0 0 0 0 0 0 0 0 0 0 0 0 0 0 0 0 0 0 0 0 0 0 0 0 0 0 0 0 0 0 0 0 0 0 0 0 0 0 0 0 0
0 0 0 0 0 0 0 0 0 0 0 0 0 0 0 0 0 0 0 0 0 0 0 0 0 0 0 0 0 0 0 0 0 0 0 0 0 0 0 0 0 0 0
0 0 0 0 0 0 0 0 0 0 0 0 0 0 0 0 0 0 0 0 0 0 0 0 0 0 0 0 0 0 0 0 0 0 0 0 0 0 0 0 0 0 0
0 0 0 0 0 0 0 0 0 0 0 0 0 0 0 0 0 0 0 0 0 0 0 0 0 0 0 0 0 0 0 0 0 0 0 0 0 0 0 0 0 0 0
0 0 0 0 0 0 0 0 0 0 0 0 0 0 0 0 0 0 0 0 0 0 0 0 0 0 0 0 0 0 0 0 0 0 0 0 0 0 0 0 0 0 0
0 0 0 0 0 0 0 0 0 0 0 0 0 0 0 0 0 0 0 0 0 0 0 0 0 0 0 0 0 0 0 0 0 0 0 0 0 0 0 0 0 0 0
0 0 0 0 0 0 0 0 0 0 0 0 0 0 0 0 0 0 0 0 0 0 0 0 0 0 0 0 0 0 0 0 0 0 0 0 0 0 0 0 0 0 0
0 0 0 0 0 0 0 0 0 0 0 0 0 0 0 0 0 0 0 0 0 0 0 0 0 0 0 0 0 0 0 0 0 0 0 0 0 0 0 0 0 0 0
0 0 0 0 0 0 0 0 0 0 0 0 0 0 0 0 0 0 0 0 0 0 0 0 0 0 0 0 0 0 0 0 0 0 0 0 0 0 0 0 0 0 0
0 0 0 0 0 0 0 0 0 0 0 0 0 0 0 0 0 0 0 0 0 0 0 0 0 0 0 0 0 0 0 0 0 -0 -0 0 0 0 0 0 0 0 0
0 0 0 0 0 0 0 0 0 0 0 0 0 0 0 0 0 0 0 0 0 0 0 0 0 0 0 0 0 0 0 0 -0 -0 -0 -0 -0 -0 -0 0 0 0 0
0 0 0 0 0 0 0 0 0 0 0 0 0 0 0 0 0 0 0 0 0 0 0 0 0 -0 0 0 0 0 -0 -0 -0 -0 -0 -0 -0 -0 -0 0 -0 -0 0
Wind_Speed_500mb
73 69 64 60 54 46 39 35 32 28 24 21 17 13 7 2 5 8 10 12 15 18 21 23 25 29 32 36 40 43 46 49 61 82 85 89 93 98 99 92 85 78 75
73 68 64 61 56 49 43 38 34 30 28 25 20 15 9 5 5 7 11 12 14 19 23 27 31 34 38 42 44 47 52 55 60 76 85 89 92 91 92 90 84 79 75
72 69 66 61 57 53 47 43 39 35 32 28 23 18 12 8 8 12 14 14 17 22 28 32 35 39 42 44 47 50 53 57 63 71 85 87 90 89 91 88 86 85 81
74 71 67 65 60 53 49 44 41 39 36 32 27 21 16 12 16 18 19 20 22 25 30 34 38 41 44 47 50 52 55 62 65 69 79 87 88 90 89 92 97 87 89
78 75 70 66 60 56 51 48 45 42 39 35 31 26 20 20 23 25 26 27 29 32 35 39 40 42 45 49 52 53 57 60 62 67 75 83 90 88 85 86 90 96 95
81 78 74 68 64 61 56 54 49 47 44 39 35 30 27 26 28 31 35 35 37 40 41 43 43 43 45 48 51 52 55 53 57 58 71 71 86 79 85 87 92 93 91
86 82 77 72 68 64 60 57 53 51 46 43 40 34 33 32 33 36 39 42 44 45 46 47 46 46 48 50 50 53 53 52 42 50 68 69 78 79 82 91 82 84 89
82 82 77 73 70 65 63 59 55 54 51 49 43 39 37 35 35 38 43 47 49 49 49 50 51 49 48 52 55 56 57 60 62 64 62 65 62 70 76 80 81 83 83
88 81 78 75 69 65 64 62 63 58 56 52 45 43 42 37 37 41 47 51 52 52 53 53 53 53 51 53 54 54 57 62 63 62 58 56 63 65 64 67 70 65 71
84 79 75 67 57 65 72 66 59 58 56 52 49 49 48 44 44 47 50 54 56 55 57 56 54 55 54 52 48 50 60 62 64 68 64 62 59 60 58 55 57 57 68
68 64 59 62 65 63 60 59 55 55 55 54 55 56 55 55 53 53 54 57 57 58 61 60 59 56 56 53 40 50 60 55 62 62 62 62 60 58 57 58 56 54 60
59 60 56 53 52 54 53 52 53 55 57 58 61 62 62 63 61 57 57 56 56 62 63 62 61 60 60 52 40 57 56 52 57 60 60 58 58 59 59 58 56 55 53
45 44 42 42 43 44 46 48 51 53 57 59 62 64 65 63 60 58 57 55 55 59 63 66 65 61 45 47 56 60 57 54 54 57 56 54 53 56 59 59 57 56 58
35 35 35 37 36 38 40 43 46 50 54 58 61 63 61 58 58 56 54 56 58 61 62 64 62 60 56 58 60 56 58 52 52 53 53 52 52 54 56 56 60 60 63
31 31 32 33 34 37 40 42 46 49 52 56 58 59 61 63 58 60 63 64 63 61 59 65 66 64 60 58 60 64 62 51 49 48 49 50 50 52 53 54 55 57 60
35 37 37 38 40 42 44 46 50 52 54 55 56 57 54 56 56 56 52 52 48 49 60 69 76 69 66 63 65 68 63 52 46 47 46 46 47 48 51 52 51 52 59
40 41 42 42 43 44 46 47 48 46 45 42 41 42 44 48 45 45 48 52 55 54 64 72 81 80 76 68 71 70 64 51 47 45 44 42 44 43 45 48 49 50 55
40 42 41 41 41 41 41 40 39 38 38 41 43 46 49 55 59 52 43 46 61 62 66 74 77 70 72 74 72 69 61 53 47 45 42 40 38 39 41 43 44 47 53
36 36 36 36 36 35 34 35 37 40 43 45 47 47 49 53 56 56 54 55 61 68 72 73 65 65 69 68 67 66 59 52 45 43 40 37 34 33 35 36 40 41 47
31 31 29 28 27 28 30 33 35 37 40 44 46 50 51 54 55 57 54 53 53 55 57 60 67 66 64 63 64 59 54 48 41 41 38 36 31 28 31 32 33 39 43
24 24 24 24 25 26 28 31 34 36 39 40 41 43 43 47 50 49 50 50 50 50 50 48 43 42 45 49 51 49 48 44 38 37 36 33 30 26 26 26 27 30 37
21 20 19 20 22 25 28 31 32 34 35 36 35 34 36 37 39 40 41 40 41 42 43 47 46 51 51 46 42 44 43 41 34 33 36 31 29 25 25 23 21 24 33
16 17 18 20 23 25 26 26 27 28 29 30 31 32 32 33 35 37 38 37 36 35 34 37 42 44 41 37 38 40 42 37 30 35 35 32 28 24 23 22 19 22 28
17 18 20 22 21 21 21 22 23 24 25 27 28 29 31 32 33 34 34 34 34 33 33 34 35 34 33 34 36 38 39 34 33 35 34 33 28 27 24 23 19 19 23
19 18 18 18 18 19 19 20 20 22 25 27 28 30 31 33 33 33 33 34 34 34 33 33 34 35 34 35 35 34 32 34 36 35 35 35 33 30 28 28 24 22 22
18 17 17 17 17 17 18 19 21 23 25 26 29 31 33 34 34 34 35 36 36 36 35 34 33 33 34 33 32 33 35 35 35 34 37 38 38 34 33 35 31 30 31
Wind_Direction_500mb
189 189 189 187 187 189 189 187 187 188 189 193 196 193 194 236 341 353 351 345 339 336 335 335 331 329 326 325 324 323 321 320 314 319 322 323 324 324 325 326 326 322 320
192 192 192 193 193 193 192 193 195 196 199 204 200 201 212 241 312 325 327 327 325 330 332 330 327 321 319 318 317 318 318 318 315 316 319 322 323 324 324 325 327 324 323
196 196 196 198 199 198 198 200 201 204 208 207 208 212 221 252 289 303 302 303 315 324 330 329 323 316 313 311 312 313 315 316 316 316 318 321 323 327 327 325 326 326 328
202 201 203 205 204 203 205 205 207 211 213 212 215 221 232 255 278 282 282 286 300 312 319 318 313 309 307 308 310 312 316 319 319 318 319 323 325 327 327 327 323 323 324
206 206 208 208 206 207 208 209 212 216 216 217 223 229 241 264 274 275 276 282 292 301 304 305 304 305 306 307 308 311 317 319 319 321 321 322 323 322 319 317 313 316 315
209 211 211 209 210 211 212 214 217 220 220 224 229 237 252 265 271 271 273 281 288 290 295 300 302 304 304 302 303 310 314 317 318 317 319 312 313 313 313 313 313 312 309
214 213 213 213 215 216 217 219 222 226 226 230 234 244 258 267 270 272 276 280 282 286 292 298 301 301 301 302 302 306 310 316 311 309 309 311 310 317 319 315 307 303 302
218 218 216 217 220 220 221 224 228 229 231 235 241 251 260 267 270 276 278 279 281 284 291 295 298 299 300 299 299 303 312 316 316 315 308 310 314 308 303 303 303 303 305
224 221 221 222 223 227 228 234 230 231 234 239 247 255 261 264 269 273 276 279 280 284 289 292 295 297 296 295 297 302 303 306 313 306 309 311 316 317 316 314 314 316 314
226 225 225 226 234 239 235 234 236 238 241 244 251 257 260 261 264 270 273 276 278 283 285 289 292 294 293 296 293 297 297 305 306 311 316 314 317 318 321 324 325 316 307
230 229 230 238 239 236 236 237 239 242 245 249 256 260 262 262 264 267 269 272 279 282 286 291 293 292 288 287 282 277 285 302 300 305 308 313 316 321 326 330 326 318 312
228 227 231 234 235 234 234 236 239 242 247 253 258 263 266 267 267 268 270 273 277 282 288 290 291 289 287 283 269 270 289 293 297 300 304 310 317 323 328 329 324 322 317
220 221 223 224 223 223 228 234 240 246 251 258 263 268 270 271 271 272 274 274 275 277 284 288 290 290 279 267 273 282 289 294 293 296 301 309 316 321 324 326 327 325 319
207 210 211 214 219 225 233 239 245 252 258 263 267 271 275 275 272 273 275 275 277 280 284 285 282 275 271 273 283 288 298 293 289 293 299 306 312 318 322 329 329 330 328
204 211 218 224 230 236 241 248 254 259 262 264 266 267 269 271 275 277 281 282 282 281 282 281 278 273 274 278 282 289 295 287 284 288 294 303 310 315 322 327 330 332 332
218 220 225 231 237 243 249 255 259 263 264 266 268 272 275 279 282 286 288 287 280 281 287 287 285 283 282 281 280 288 291 286 283 286 293 301 308 313 319 325 331 334 333
226 230 235 241 247 252 256 260 263 266 272 275 275 272 268 269 268 268 269 268 268 270 265 265 270 273 275 275 281 286 289 283 281 284 291 297 302 309 317 324 330 335 337
239 242 246 249 252 257 260 263 266 268 269 268 272 278 282 284 285 283 284 285 277 271 268 266 269 274 274 279 280 284 283 277 278 282 287 292 297 305 315 322 330 336 341
244 246 248 251 253 257 261 266 271 276 282 289 292 290 288 288 287 289 288 285 282 276 271 269 270 273 275 274 277 282 276 272 274 280 284 286 291 299 311 319 327 336 341
243 244 246 250 254 259 264 272 279 284 286 289 293 297 299 300 298 299 300 297 291 286 283 280 276 273 272 274 277 277 269 269 272 278 280 280 282 292 307 317 327 339 342
240 243 246 251 260 271 279 280 281 285 291 296 299 300 302 301 307 308 308 307 302 296 289 286 287 286 282 277 272 268 265 268 272 275 273 273 277 286 300 310 324 341 345
238 244 255 264 269 272 277 283 288 292 295 298 299 301 302 307 309 312 312 312 309 300 293 282 280 282 286 282 273 266 266 269 271 271 268 270 271 277 294 304 317 339 346
245 252 259 267 274 278 280 283 289 294 297 301 306 311 313 314 314 315 315 313 309 307 299 289 283 281 281 277 271 270 271 271 269 266 266 266 265 265 283 293 307 329 341
250 259 265 271 276 279 281 287 294 299 303 309 313 315 315 318 318 317 315 313 310 307 304 300 294 289 283 277 273 272 271 270 267 264 263 265 267 260 272 281 288 310 324
252 260 265 268 270 275 282 290 301 308 308 308 310 312 315 317 319 319 320 317 314 310 304 297 293 289 285 281 277 273 270 271 267 264 262 262 264 266 263 275 278 290 303
253 254 257 261 266 275 286 297 302 304 305 307 310 312 313 313 315 316 317 314 312 310 308 304 299 293 288 283 280 277 274 272 268 264 262 260 261 266 269 266 269 278 287
Wind_Speed_850mb
73 69 64 60 54 46 39 35 32 28 24 21 17 13 7 2 5 8 10 12 15 18 21 23 25 29 32 36 40 43 46 49 61 82 85 89 93 98 99 92 85 78 75
73 68 64 61 56 49 43 38 34 30 28 25 20 15 9 5 5 7 11 12 14 19 23 27 31 34 38 42 44 47 52 55 60 76 85 89 92 91 92 90 84 79 75
72 69 66 61 57 53 47 43 39 35 32 28 23 18 12 8 8 12 14 14 17 22 28 32 35 39 42 44 47 50 53 57 63 71 85 87 90 89 91 88 86 85 81
74 71 67 65 60 53 49 44 41 39 36 32 27 21 16 12 16 18 19 20 22 25 30 34 38 41 44 47 50 52 55 62 65 69 79 87 88 90 89 92 97 87 89
78 75 70 66 60 56 51 48 45 42 39 35 31 26 20 20 23 25 26 27 29 32 35 39 40 42 45 49 52 53 57 60 62 67 75 83 90 88 85 86 90 96 95
81 78 74 68 64 61 56 54 49 47 44 39 35 30 27 26 28 31 35 35 37 40 41 43 43 43 45 48 51 52 55 53 57 58 71 71 86 79 85 87 92 93 91
86 82 77 72 68 64 60 57 53 51 46 43 40 34 33 32 33 36 39 42 44 45 46 47 46 46 48 50 50 53 53 52 42 50 68 69 78 79 82 91 82 84 89
82 82 77 73 70 65 63 59 55 54 51 49 43 39 37 35 35 38 43 47 49 49 49 50 51 49 48 52 55 56 57 60 62 64 62 65 62 70 76 80 81 83 83
88 81 78 75 69 65 64 62 63 58 56 52 45 43 42 37 37 41 47 51 52 52 53 53 53 53 51 53 54 54 57 62 63 62 58 56 63 65 64 67 70 65 71
84 79 75 67 57 65 72 66 59 58 56 52 49 49 48 44 44 47 50 54 56 55 57 56 54 55 54 52 48 50 60 62 64 68 64 62 59 60 58 55 57 57 68
68 64 59 62 65 63 60 59 55 55 55 54 55 56 55 55 53 53 54 57 57 58 61 60 59 56 56 53 40 50 60 55 62 62 62 62 60 58 57 58 56 54 60
59 60 56 53 52 54 53 52 53 55 57 58 61 62 62 63 61 57 57 56 56 62 63 62 61 60 60 52 40 57 56 52 57 60 60 58 58 59 59 58 56 55 53
45 44 42 42 43 44 46 48 51 53 57 59 62 64 65 63 60 58 57 55 55 59 63 66 65 61 45 47 56 60 57 54 54 57 56 54 53 56 59 59 57 56 58
35 35 35 37 36 38 40 43 46 50 54 58 61 63 61 58 58 56 54 56 58 61 62 64 62 60 56 58 60 56 58 52 52 53 53 52 52 54 56 56 60 60 63
31 31 32 33 34 37 40 42 46 49 52 56 58 59 61 63 58 60 63 64 63 61 59 65 66 64 60 58 60 64 62 51 49 48 49 50 50 52 53 54 55 57 60
35 37 37 38 40 42 44 46 50 52 54 55 56 57 54 56 56 56 52 52 48 49 60 69 76 69 66 63 65 68 63 52 46 47 46 46 47 48 51 52 51 52 59
40 41 42 42 43 44 46 47 48 46 45 42 41 42 44 48 45 45 48 52 55 54 64 72 81 80 76 68 71 70 64 51 47 45 44 42 44 43 45 48 49 50 55
40 42 41 41 41 41 41 40 39 38 38 41 43 46 49 55 59 52 43 46 61 62 66 74 77 70 72 74 72 69 61 53 47 45 42 40 38 39 41 43 44 47 53
36 36 36 36 36 35 34 35 37 40 43 45 47 47 49 53 56 56 54 55 61 68 72 73 65 65 69 68 67 66 59 52 45 43 40 37 34 33 35 36 40 41 47
31 31 29 28 27 28 30 33 35 37 40 44 46 50 51 54 55 57 54 53 53 55 57 60 67 66 64 63 64 59 54 48 41 41 38 36 31 28 31 32 33 39 43
24 24 24 24 25 26 28 31 34 36 39 40 41 43 43 47 50 49 50 50 50 50 50 48 43 42 45 49 51 49 48 44 38 37 36 33 30 26 26 26 27 30 37
21 20 19 20 22 25 28 31 32 34 35 36 35 34 36 37 39 40 41 40 41 42 43 47 46 51 51 46 42 44 43 41 34 33 36 31 29 25 25 23 21 24 33
16 17 18 20 23 25 26 26 27 28 29 30 31 32 32 33 35 37 38 37 36 35 34 37 42 44 41 37 38 40 42 37 30 35 35 32 28 24 23 22 19 22 28
17 18 20 22 21 21 21 22 23 24 25 27 28 29 31 32 33 34 34 34 34 33 33 34 35 34 33 34 36 38 39 34 33 35 34 33 28 27 24 23 19 19 23
19 18 18 18 18 19 19 20 20 22 25 27 28 30 31 33 33 33 33 34 34 34 33 33 34 35 34 35 35 34 32 34 36 35 35 35 33 30 28 28 24 22 22
18 17 17 17 17 17 18 19 21 23 25 26 29 31 33 34 34 34 35 36 36 36 35 34 33 33 34 33 32 33 35 35 35 34 37 38 38 34 33 35 31 30 31
Wind_Direction_850mb
189 189 189 187 187 189 189 187 187 188 189 193 196 193 194 236 341 353 351 345 339 336 335 335 331 329 326 325 324 323 321 320 314 319 322 323 324 324 325 326 326 322 320
192 192 192 193 193 193 192 193 195 196 199 204 200 201 212 241 312 325 327 327 325 330 332 330 327 321 319 318 317 318 318 318 315 316 319 322 323 324 324 325 327 324 323
196 196 196 198 199 198 198 200 201 204 208 207 208 212 221 252 289 303 302 303 315 324 330 329 323 316 313 311 312 313 315 316 316 316 318 321 323 327 327 325 326 326 328
202 201 203 205 204 203 205 205 207 211 213 212 215 221 232 255 278 282 282 286 300 312 319 318 313 309 307 308 310 312 316 319 319 318 319 323 325 327 327 327 323 323 324
206 206 208 208 206 207 208 209 212 216 216 217 223 229 241 264 274 275 276 282 292 301 304 305 304 305 306 307 308 311 317 319 319 321 321 322 323 322 319 317 313 316 315
209 211 211 209 210 211 212 214 217 220 220 224 229 237 252 265 271 271 273 281 288 290 295 300 302 304 304 302 303 310 314 317 318 317 319 312 313 313 313 313 313 312 309
214 213 213 213 215 216 217 219 222 226 226 230 234 244 258 267 270 272 276 280 282 286 292 298 301 301 301 302 302 306 310 316 311 309 309 311 310 317 319 315 307 303 302
218 218 216 217 220 220 221 224 228 229 231 235 241 251 260 267 270 276 278 279 281 284 291 295 298 299 300 299 299 303 312 316 316 315 308 310 314 308 303 303 303 303 305
224 221 221 222 223 227 228 234 230 231 234 239 247 255 261 264 269 273 276 279 280 284 289 292 295 297 296 295 297 302 303 306 313 306 309 311 316 317 316 314 314 316 314
226 225 225 226 234 239 235 234 236 238 241 244 251 257 260 261 264 270 273 276 278 283 285 289 292 294 293 296 293 297 297 305 306 311 316 314 317 318 321 324 325 316 307
230 229 230 238 239 236 236 237 239 242 245 249 256 260 262 262 264 267 269 272 279 282 286 291 293 292 288 287 282 277 285 302 300 305 308 313 316 321 326 330 326 318 312
228 227 231 234 235 234 234 236 239 242 247 253 258 263 266 267 267 268 270 273 277 282 288 290 291 289 287 283 269 270 289 293 297 300 304 310 317 323 328 329 324 322 317
220 221 223 224 223 223 228 234 240 246 251 258 263 268 270 271 271 272 274 274 275 277 284 288 290 290 279 267 273 282 289 294 293 296 301 309 316 321 324 326 327 325 319
207 210 211 214 219 225 233 239 245 252 258 263 267 271 275 275 272 273 275 275 277 280 284 285 282 275 271 273 283 288 298 293 289 293 299 306 312 318 322 329 329 330 328
204 211 218 224 230 236 241 248 254 259 262 264 266 267 269 271 275 277 281 282 282 281 282 281 278 273 274 278 282 289 295 287 284 288 294 303 310 315 322 327 330 332 332
218 220 225 231 237 243 249 255 259 263 264 266 268 272 275 279 282 286 288 287 280 281 287 287 285 283 282 281 280 288 291 286 283 286 293 301 308 313 319 325 331 334 333
226 230 235 241 247 252 256 260 263 266 272 275 275 272 268 269 268 268 269 268 268 270 265 265 270 273 275 275 281 286 289 283 281 284 291 297 302 309 317 324 330 335 337
239 242 246 249 252 257 260 263 266 268 269 268 272 278 282 284 285 283 284 285 277 271 268 266 269 274 274 279 280 284 283 277 278 282 287 292 297 305 315 322 330 336 341
244 246 248 251 253 257 261 266 271 276 282 289 292 290 288 288 287 289 288 285 282 276 271 269 270 273 275 274 277 282 276 272 274 280 284 286 291 299 311 319 327 336 341
243 244 246 250 254 259 264 272 279 284 286 289 293 297 299 300 298 299 300 297 291 286 283 280 276 273 272 274 277 277 269 269 272 278 280 280 282 292 307 317 327 339 342
240 243 246 251 260 271 279 280 281 285 291 296 299 300 302 301 307 308 308 307 302 296 289 286 287 286 282 277 272 268 265 268 272 275 273 273 277 286 300 310 324 341 345
238 244 255 264 269 272 277 283 288 292 295 298 299 301 302 307 309 312 312 312 309 300 293 282 280 282 286 282 273 266 266 269 271 271 268 270 271 277 294 304 317 339 346
245 252 259 267 274 278 280 283 289 294 297 301 306 311 313 314 314 315 315 313 309 307 299 289 283 281 281 277 271 270 271 271 269 266 266 266 265 265 283 293 307 329 341
250 259 265 271 276 279 281 287 294 299 303 309 313 315 315 318 318 317 315 313 310 307 304 300 294 289 283 277 273 272 271 270 267 264 263 265 267 260 272 281 288 310 324
252 260 265 268 270 275 282 290 301 308 308 308 310 312 315 317 319 319 320 317 314 310 304 297 293 289 285 281 277 273 270 271 267 264 262 262 264 266 263 275 278 290 303
253 254 257 261 266 275 286 297 302 304 305 307 310 312 313 313 315 316 317 314 312 310 308 304 299 293 288 283 280 277 274 272 268 264 262 260 261 266 269 266 269 278 287